Flag for Germany Weather past 2 weeks in Viernheim, Hesse, Germany

Now
66 °F

Mostly cloudy.


Feels Like: 66 °F
Forecast: 56 / 74 °F
Wind: 3 mph from North

Location: Baden Wurttemberg - Neuostheim

Current Time: Sep 15, 2014 at 12:09:58 PM

Latest Report: Sep 15, 2014 at 11:20 AM


Visibility: N/A

Pressure: 30.04 "Hg

Humidity: 73%

Dew point: 57 °F

Location of ViernheimLocation

Historic Weather in Viernheim — Graph

°F

Viernheim temperature yesterday

Maximum temperature yesterday: 72 °F (at 3:50 PM)
Minimum temperature yesterday: 59 °F (at 7:50 AM)
Average temperature yesterday: 66 °F

Past Weeks' High & Low Weather Summary

 TemperatureHumidityPressure
High82 °F (Sep 6, 5:20 PM)100% (Sep 5, 6:20 AM)30.18 "Hg (Sep 5, 6:20 AM)
Low50 °F (Sep 1, 6:20 AM)37% (Sep 6, 5:20 PM)29.86 "Hg (Sep 6, 4:20 PM)
Average64 °F74%30.05 "Hg
* Reported Aug 31 10:20 AM — Sep 15 10:20 AM, Viernheim, Weather by CustomWeather, © 2014

Note: Actual official high and low records may vary slightly from our data, if they occured in-between our weather recording intervals... More about our weather records

Advertising

Viernheim weather history for previous 24 hours

 ConditionsComfort  
Time TempWeatherWind HumidityBarometerVisibility
10:20 AM
Sep 15
64 °FScattered clouds.3 mph78%30.04 "HgN/A
9:50 AM64 °FPassing clouds.3 mph83%30.04 "HgN/A
9:20 AM61 °FPartly sunny.2 mph94%30.04 "HgN/A
8:50 AM61 °FPartly sunny.1 mph94%30.01 "HgN/A
8:20 AM59 °FPartly sunny.2 mph94%30.01 "HgN/A
7:50 AM57 °FOvercast.No wind100%30.04 "HgN/A
7:20 AM57 °FPassing clouds.No wind94%30.01 "HgN/A
6:50 AM55 °FPassing clouds.2 mph94%30.01 "HgN/A
6:20 AM54 °FCool.1 mph100%30.01 "Hg6 mi
5:50 AM54 °FPassing clouds.No wind100%30.01 "Hg5 mi
5:20 AM54 °FClear.1 mph100%30.01 "Hg10 mi
4:50 AM55 °FPassing clouds.2 mph94%30.01 "HgN/A
4:20 AM55 °FPassing clouds.1 mph100%30.04 "Hg6 mi
7:50 PM
Sep 14
66 °FSunny.7 mph73%30.04 "Hg10 mi
7:20 PM68 °FScattered clouds.7 mph73%30.04 "HgN/A
6:50 PM68 °FPartly sunny.8 mph69%30.04 "HgN/A
6:20 PM70 °FScattered clouds.8 mph69%30.04 "HgN/A
5:50 PM70 °FScattered clouds.9 mph64%30.04 "HgN/A
5:20 PM70 °FScattered clouds.7 mph69%30.04 "HgN/A
4:50 PM68 °FScattered clouds.7 mph73%30.04 "HgN/A
4:20 PM70 °FMild.6 mph69%30.04 "HgN/A
3:50 PM72 °FScattered clouds.5 mph61%30.07 "HgN/A
3:20 PM70 °FScattered clouds.6 mph64%30.07 "HgN/A
2:50 PM70 °FScattered clouds.6 mph64%30.07 "HgN/A
2:20 PM70 °FScattered clouds.6 mph64%30.07 "HgN/A
1:50 PM68 °FPartly sunny.6 mph69%30.09 "HgN/A
1:20 PM68 °FBroken clouds.6 mph69%30.09 "HgN/A
12:50 PM66 °FPartly sunny.7 mph73%30.09 "HgN/A
12:20 PM66 °FScattered clouds.5 mph73%30.09 "HgN/A
Weather by CustomWeather, © 2014

See weather overviewHow to use our weather pages